Date String (YYYY-MM-DD hh:mm:ss) UTC,Instrument flags,Ambient pressure (hPa),Sample flow (lpm),Bypass flow (lpm),Sample temperature (°C),Ambient temperature (°C),ASC tube jacket temperature (°C),LED temperature (°C),Box temperature (°C),Sample RH (%),Span deviation,Mass concentration (μg/m³),Mass concentration (μg/m³),Mass concentration (μg/m³)
DateTimeUTC,F1_M11,P_M11,Q1_M11,Q2_M11,T1_M11,T2_M11,T3_M11,T4_M11,T5_M11,U1_M11,ZSPAN_M11,X0_M11,X2_M11,X1_M11
2021-10-14 00:00:00,,0818.7,4.99,0.00,26.1,25.1,00.0,35.2,27.8,10.1,0000.0,0002.47,0001.73,0001.38
2021-10-14 00:01:00,,0818.6,5.01,0.00,26.1,25.1,00.0,35.2,27.8,10.2,0000.0,0002.35,0001.69,0001.39
2021-10-14 00:02:00,,0818.7,4.99,0.00,26.1,25.1,00.0,35.2,27.8,10.3,0000.0,0002.48,0001.69,0001.40
2021-10-14 00:03:00,,0818.7,5.00,0.00,26.0,25.1,00.0,35.2,27.8,10.3,0000.0,0002.63,0001.71,0001.40
2021-10-14 00:04:00,,0818.7,5.01,0.00,26.0,25.1,00.0,35.2,27.8,10.4,0000.0,0002.66,0001.72,0001.41
2021-10-14 00:05:00,,0818.7,5.01,0.00,26.0,25.1,00.0,35.2,27.7,10.5,0000.0,0002.72,0001.70,0001.39
2021-10-14 00:06:00,,0818.7,4.99,0.00,26.0,25.1,00.0,35.2,27.7,10.6,0000.0,0002.93,0001.69,0001.39
2021-10-14 00:07:00,,0818.7,5.01,0.00,26.0,25.1,00.0,35.2,27.7,10.6,0000.0,0002.85,0001.65,0001.39
2021-10-14 00:08:00,,0818.7,5.00,0.00,26.0,25.0,00.0,35.1,27.7,10.6,0000.0,0002.86,0001.64,0001.38
2021-10-14 00:09:00,,0818.8,5.01,0.00,26.0,25.0,00.0,35.1,27.8,10.5,0000.0,0002.81,0001.62,0001.37
2021-10-14 00:10:00,,0818.8,5.01,0.00,26.0,25.0,00.0,35.1,27.8,10.6,0000.0,0002.82,0001.62,0001.36
2021-10-14 00:11:00,,0818.9,5.00,0.00,25.9,25.0,00.0,35.1,27.6,10.7,0000.0,0003.03,0001.68,0001.34
2021-10-14 00:12:00,,0818.8,4.99,0.00,25.9,25.0,00.0,35.1,27.6,10.8,0000.0,0003.12,0001.70,0001.34
2021-10-14 00:13:00,,0818.8,5.02,0.00,25.9,25.0,00.0,35.1,27.7,10.9,0000.0,0002.99,0001.69,0001.32
2021-10-14 00:14:00,,0818.8,4.99,0.00,25.9,25.0,00.0,35.1,27.7,10.9,0000.0,0002.88,0001.70,0001.33
2021-10-14 00:15:00,,0818.8,5.01,0.00,25.9,25.0,00.0,35.1,27.8,10.9,0000.0,0002.88,0001.71,0001.33
2021-10-14 00:16:00,,0818.9,5.00,0.00,25.9,25.0,00.0,35.1,27.7,10.9,0000.0,0002.79,0001.70,0001.33
2021-10-14 00:17:00,,0818.9,4.99,0.00,25.9,25.0,00.0,35.1,27.6,11.0,0000.0,0002.68,0001.71,0001.32
2021-10-14 00:18:00,,0818.9,5.01,0.00,25.8,24.9,00.0,35.0,27.5,11.0,0000.0,0002.67,0001.72,0001.31
2021-10-14 00:19:00,,0818.9,5.01,0.00,25.8,24.9,00.0,35.0,27.5,11.0,0000.0,0002.59,0001.70,0001.32
2021-10-14 00:20:00,,0818.9,4.98,0.00,25.8,24.8,00.0,35.0,27.4,11.1,0000.0,0002.75,0001.73,0001.31
2021-10-14 00:21:00,,0818.9,5.00,0.00,25.8,24.8,00.0,35.0,27.4,11.2,0000.0,0002.68,0001.70,0001.31
2021-10-14 00:22:00,,0819.0,5.00,0.00,25.8,24.7,00.0,35.0,27.4,11.2,0000.0,0002.58,0001.68,0001.31
2021-10-14 00:23:00,,0819.0,5.00,0.00,25.8,24.7,00.0,35.0,27.4,11.2,0000.0,0002.37,0001.62,0001.31
2021-10-14 00:24:00,,0818.9,5.01,0.00,25.8,24.7,00.0,35.0,27.5,11.1,0000.0,0002.39,0001.61,0001.31
2021-10-14 00:25:00,,0819.0,4.99,0.00,25.8,24.8,00.0,35.0,27.4,11.1,0000.0,0002.61,0001.61,0001.30
2021-10-14 00:26:00,,0819.0,5.00,0.00,25.8,24.7,00.0,35.0,27.4,11.1,0000.0,0002.65,0001.61,0001.28
2021-10-14 00:27:00,,0819.1,5.00,0.00,25.8,24.8,00.0,35.0,27.4,11.0,0000.0,0002.63,0001.60,0001.28
2021-10-14 00:28:00,,0819.1,4.99,0.00,25.8,24.8,00.0,35.0,27.4,11.1,0000.0,0002.61,0001.61,0001.29
2021-10-14 00:29:00,,0819.1,5.01,0.00,25.7,24.7,00.0,34.9,27.4,11.0,0000.0,0002.54,0001.59,0001.29
2021-10-14 00:30:00,,0819.1,5.00,0.00,25.7,24.6,00.0,34.9,27.4,11.1,0000.0,0002.55,0001.59,0001.30
2021-10-14 00:31:00,,0819.3,5.01,0.00,25.7,24.6,00.0,34.9,27.3,11.0,0000.0,0002.47,0001.57,0001.29
2021-10-14 00:32:00,,0819.2,5.01,0.00,25.7,24.6,00.0,34.9,27.3,11.0,0000.0,0003.07,0001.58,0001.29
2021-10-14 00:33:00,,0819.3,4.99,0.00,25.7,24.6,00.0,34.9,27.3,11.0,0000.0,0003.24,0001.58,0001.30
2021-10-14 00:34:00,,0819.3,5.00,0.00,25.7,24.6,00.0,34.9,27.3,11.0,0000.0,0003.30,0001.58,0001.30
2021-10-14 00:35:00,,0819.3,5.01,0.00,25.7,24.6,00.0,34.9,27.4,11.0,0000.0,0003.31,0001.60,0001.30
2021-10-14 00:36:00,,0819.2,5.00,0.00,25.7,24.5,00.0,34.9,27.4,11.0,0000.0,0003.10,0001.60,0001.32
2021-10-14 00:37:00,,0819.3,5.01,0.00,25.7,24.6,00.0,34.9,27.4,11.0,0000.0,0003.06,0001.59,0001.32
2021-10-14 00:38:00,,0819.3,4.99,0.00,25.7,24.6,00.0,34.9,27.4,10.9,0000.0,0003.14,0001.61,0001.32
2021-10-14 00:39:00,,0819.3,4.99,0.00,25.7,24.6,00.0,34.9,27.4,10.9,0000.0,0003.09,0001.59,0001.32
2021-10-14 00:40:00,,0819.3,5.00,0.00,25.7,24.6,00.0,34.9,27.4,10.9,0000.0,0003.04,0001.57,0001.31
2021-10-14 00:41:00,,0819.3,5.00,0.00,25.7,24.6,00.0,34.9,27.4,10.9,0000.0,0002.95,0001.55,0001.31
2021-10-14 00:42:00,,0819.3,5.01,0.00,25.7,24.6,00.0,34.9,27.4,10.9,0000.0,0002.87,0001.54,0001.31
2021-10-14 00:43:00,,0819.4,4.99,0.00,25.7,24.6,00.0,34.9,27.4,10.9,0000.0,0002.31,0001.56,0001.32
2021-10-14 00:44:00,,0819.4,5.01,0.00,25.7,24.6,00.0,34.9,27.4,10.9,0000.0,0002.15,0001.57,0001.32
2021-10-14 00:45:00,,0819.4,5.00,0.00,25.7,24.6,00.0,34.9,27.4,10.9,0000.0,0002.11,0001.57,0001.33
2021-10-14 00:46:00,,0819.4,4.99,0.00,25.7,24.7,00.0,34.9,27.5,10.6,0000.0,0002.09,0001.57,0001.34
2021-10-14 00:47:00,,0819.4,5.01,0.00,25.8,24.7,00.0,34.9,27.5,10.7,0000.0,0002.10,0001.60,0001.35
2021-10-14 00:48:00,,0819.4,4.98,0.00,25.8,24.7,00.0,34.9,27.5,10.7,0000.0,0002.09,0001.61,0001.36
2021-10-14 00:49:00,,0819.5,5.00,0.00,25.8,24.7,00.0,34.9,27.5,10.7,0000.0,0002.04,0001.61,0001.38
2021-10-14 00:50:00,,0819.5,5.00,0.00,25.8,24.7,00.0,34.9,27.5,10.7,0000.0,0002.08,0001.64,0001.40
2021-10-14 00:51:00,,0819.5,5.00,0.00,25.8,24.7,00.0,34.9,27.5,10.7,0000.0,0002.10,0001.65,0001.41
2021-10-14 00:52:00,,0819.5,5.00,0.00,25.8,24.7,00.0,34.9,27.5,10.6,0000.0,0003.11,0001.66,0001.41
2021-10-14 00:53:00,,0819.5,5.01,0.00,25.8,24.7,00.0,34.9,27.5,10.6,0000.0,0003.28,0001.67,0001.42
2021-10-14 00:54:00,,0819.5,5.00,0.00,25.8,24.8,00.0,34.9,27.6,10.5,0000.0,0003.55,0001.70,0001.44
2021-10-14 00:55:00,,0819.6,4.99,0.00,25.8,24.8,00.0,34.9,27.6,10.5,0000.0,0003.56,0001.71,0001.45
2021-10-14 00:56:00,,0819.7,5.00,0.00,25.8,24.8,00.0,34.9,27.6,10.6,0000.0,0003.76,0001.71,0001.46
2021-10-14 00:57:00,,0819.7,5.00,0.00,25.8,24.8,00.0,34.9,27.6,10.6,0000.0,0003.89,0001.69,0001.46
2021-10-14 00:58:00,,0819.6,5.00,0.00,25.8,24.9,00.0,34.9,27.6,10.6,0000.0,0003.90,0001.68,0001.46
2021-10-14 00:59:00,,0819.7,4.99,0.00,25.8,24.9,00.0,34.9,27.6,10.7,0000.0,0003.90,0001.68,0001.46
